ニェウイミン第1彗星

28P/Neujmin 1 (2021)

English version
Home page
Updated on January 22, 2023

---------------------------------------------------------------------

・ プロフィール

・ 写真集

・ 軌道要素

Epoch 2023 Feb. 25.0 TT = JDT 2460000.5
T 2021 Mar. 11.79234 TT                                 Rudenko
q   1.5805839            (2000.0)            P               Q
n   0.05343050     Peri.  347.46464     +0.89889515     +0.43425870
a   6.9814109      Node   346.34138     -0.37764236     +0.70027574
e   0.7736011      Incl.   14.31082     -0.22220208     +0.56659798
P  18.4
>From 936 observations 2017 Mar. 19-2023 Jan. 19, mean residual 0".3.

・ 星図

・ 光度変化

        H = 12.2  G = 0.15

---------------------------------------------------------------------

軌道要素はM.P.E.C. 2023-B57に掲載されたものです。
星図はステラナビゲータ Ver.10 (アストロアーツ) で作成したものです。
光度グラフはComet for Windowsで作成したものです。

---------------------------------------------------------------------

Copyright(C) Seiichi Yoshida (comet@aerith.net). All rights reserved.